7 * 24
多渠道服务支持
STARLINK-34538 是 SpaceX Starlink 项目中的一颗低轨通信卫星,属于第三代 Starlink 卫星(也称为 v1.5 或 Block V)。该卫星于 2023 年发射,旨在为全球提供高速互联网服务。它运行在约 550 公里的轨道高度,配备先进通信设备和激光链路,以提升网络效率和减少延迟。Starlink 卫星群致力于改善偏远地区的网络接入,并支持多种应用场景,包括民用、商业和军事通信。
美国
(US)
| 数据来源 | 国际轨道数据 |
| 星历时间: | 2025-10-30T06:20:12+0800 20小时前 查看轨道信息 |
| 半长轴: | 6853.357km |
| 偏心率: | 0.0001508 |
| 轨道倾角: | 53.161° |
| 近地点辐角 | 85.455° |
| 升交点赤经 | 14.447° |
| 平近点角 | 274.663° |
| 近地点: | 474.188km |
| 远地点: | 476.256km |
| 周期: | 94.105分钟 |
| 每日圈数: | 15.301984 |